Погода в Тораеве

Россия / Чувашская Республика     55°56′45″N   46°35′16″E
темп.,
°C
ветер,
м/с
пор.,
м/с
влажн.,
%
обл.,
%
осадки,
мм/ч
давл.,
гПа
погр.,
м
20 января, ср
ср2000:00−19сз2498100 0.4 101483
03:00−18зсз2597100 0.8 1014218
06:00−18з3597100 0.5 1014214
09:00−17з3697100 0.8 1014233
12:00−15зюз3595100 0.1 1015263
15:00−15зюз4795100 0.3 1014262
18:00−14зюз489697 0.1 1015231
21:00−13зюз489696 0.3 1016259
21 января, чт
чт2100:00−13з489698 0.3 1016236
03:00−13з489694 0.4 1017221
06:00−14з589698 0.1 1017249
09:00−14зюз599599 0.4 1017278
12:00−12зюз5994100 0.3 1017345
15:00−11зюз51095100 0.6 1016364
18:00−12юз5109399 0.2 1015295
21:00−12юз489695 0.4 1015242
22 января, пт
пт2200:00−13юз379694 0.2 1015173
03:00−16зюз239895 0.3 101529
06:00−17з1299100 0.0 101620
09:00−17з119699 0.0 101820
12:00−14ююз119399 0.0 101977
15:00−15юв229494 0.0 102020
18:00−16юв359499 0.0 102190
21:00−14юв5993100 0.0 1021255
23 января, сб
сб2300:00−13юв61193100 0.1 1020277
03:00−12ююв61194100 0.8 1018316
06:00−8ююв51195100 0.7 1016291
09:00−4ю51296100 1.4 1015391
12:00+1ююз613100100 0.8 1014440
15:00+1юз713100100 1.1 1014526
18:00+1юз61297100 0.0 1014517
21:00+1юз51295100 0.0 1015562
24 января, вс
вс2400:00+1юз51296100 0.0 1015519
03:00+1юз61298100 0.1 1015438
06:00+1юз49100100 0.2 1015271
09:00+2юз510100100 0.8 1015244
12:00+1ююз511100100 0.3 1016306
15:00+1ююз510100100 0.3 1017340
18:00+1ююз5996100 0.0 1018329
21:00+1ююз51096100 0.1 1018322